Change the Weather History Date:

Tuesday, March 4, 2014

  Actual Average Record
Temperature  
Mean Temperature 34 °F -  
Max Temperature 50 °F 57 °F 78 °F (1997)
Min Temperature 18 °F 38 °F 15 °F (2002)
Degree Days  
Heating Degree Days 31    
Moisture  
Dew Point 22 °F    
Average Humidity 77    
Maximum Humidity 93    
Minimum Humidity 43    
Precipitation  
Precipitation 0.00 in - - ()
Sea Level Pressure  
Sea Level Pressure 30.17 in    
Wind  
Wind Speed 2 mph (SE)    
Max Wind Speed 10 mph    
Max Gust Speed -    
Visibility 10 miles    
Events      
Averages and records for this station are not official NWS values.
T = Trace of Precipitation, MM = Missing Value Source: NWS Daily Summary

Daily Weather History Graph

Daily Weather History Graph

Search for Another Location

Airport or City:

Trip Planner

Search our weather history database for the weather conditions in past years. The results will help you decide how hot, cold, wet, or windy it might be!

Date:

Astronomy

Mar. 04, 2014 Rise Set
Actual Time 6:53 AM CST 6:26 PM CST
Civil Twilight 6:27 AM CST 6:51 PM CST
Nautical Twilight 5:58 AM CST 7:21 PM CST
Astronomical Twilight 5:29 AM CST 7:50 PM CST
Moon 8:50 AM CST (3/4) 10:23 PM CST (3/4)
Length of Visible Light 12h 23m
Length of Day
11h 33m
Waxing Crescent, 15% of the Moon is Illuminated
Mar 4
Waxing Crescent
Mar 8
First Quarter
Mar 16
Full
Mar 23
Last Quarter
Mar 30
New

Hourly Weather History & Observations

Time (CST) Temp. Windchill Dew Point Humidity Pressure Visibility Wind Dir Wind Speed Gust Speed Precip Events Conditions
12:15 AM 22.8 °F - 18.7 °F 84% 30.31 in 10.0 mi Calm Calm - N/A   Clear
12:35 AM 22.8 °F 18.2 °F 18.1 °F 82% 30.30 in 10.0 mi NNE 3.5 mph - N/A   Clear
12:55 AM 22.8 °F - 18.7 °F 84% 30.29 in 10.0 mi Calm Calm - N/A   Clear
1:15 AM 23.0 °F - 18.9 °F 84% 30.29 in 10.0 mi Calm Calm - N/A   Clear
1:35 AM 22.6 °F - 18.7 °F 85% 30.28 in 10.0 mi Calm Calm - N/A   Clear
1:55 AM 22.3 °F - 18.5 °F 85% 30.27 in 10.0 mi Calm Calm - N/A   Clear
2:15 AM 22.8 °F - 16.7 °F 77% 30.26 in 10.0 mi Calm Calm - N/A   Clear
2:35 AM 22.8 °F - 16.5 °F 77% 30.26 in 10.0 mi Calm Calm - N/A   Clear
2:55 AM 22.6 °F - 16.2 °F 76% 30.25 in 10.0 mi Calm Calm - N/A   Clear
3:15 AM 22.5 °F - 17.4 °F 81% 30.24 in 10.0 mi Calm Calm - N/A   Clear
3:35 AM 21.9 °F - 17.6 °F 83% 30.22 in 10.0 mi Calm Calm - N/A   Clear
3:55 AM 21.6 °F - 18.0 °F 86% 30.22 in 10.0 mi Calm Calm - N/A   Clear
4:15 AM 21.7 °F - 17.2 °F 83% 30.21 in 10.0 mi Calm Calm - N/A   Clear
4:35 AM 21.2 °F - 17.6 °F 86% 30.21 in 10.0 mi Calm Calm - N/A   Clear
4:55 AM 20.5 °F - 16.3 °F 84% 30.20 in 10.0 mi Calm Calm - N/A   Clear
5:15 AM 19.8 °F - 16.9 °F 89% 30.21 in 10.0 mi Calm Calm - N/A   Clear
5:35 AM 18.7 °F 11.9 °F 16.9 °F 93% 30.20 in 10.0 mi North 4.6 mph - N/A   Clear
6:55 AM 21.2 °F - 17.6 °F 86% 30.23 in 10.0 mi Calm Calm - N/A   Clear
7:55 AM 23.0 °F - 17.6 °F 80% 30.23 in 10.0 mi Calm Calm - N/A   Clear
8:55 AM 24.8 °F 19.1 °F 21.2 °F 86% 30.23 in 10.0 mi SE 4.6 mph - N/A   Clear
9:55 AM 30.2 °F 26.7 °F 23.0 °F 75% 30.23 in 10.0 mi SE 3.5 mph - N/A   Clear
10:55 AM 35.6 °F 30.7 °F 23.0 °F 60% 30.20 in 10.0 mi SSE 5.8 mph - N/A   Clear
11:55 AM 39.2 °F 34.2 °F 26.6 °F 61% 30.15 in 10.0 mi ESE 6.9 mph - N/A   Clear
12:55 PM 42.8 °F 38.6 °F 26.6 °F 53% 30.10 in 10.0 mi SE 6.9 mph - N/A   Clear
2:55 PM 46.4 °F 44.3 °F 28.4 °F 50% 30.08 in 10.0 mi SSE 4.6 mph - N/A   Clear
3:55 PM 50.0 °F - 28.4 °F 43% 30.05 in 10.0 mi SE 10.4 mph - N/A   Clear
4:55 PM 50.0 °F - 28.4 °F 43% 30.03 in 10.0 mi SE 10.4 mph - N/A   Clear
5:55 PM 46.4 °F 41.9 °F 30.2 °F 53% 30.02 in 10.0 mi SE 9.2 mph - N/A   Clear
6:55 PM 41.0 °F 37.1 °F 28.4 °F 61% 30.02 in 10.0 mi ESE 5.8 mph - N/A   Clear
7:55 PM 39.2 °F 37.0 °F 28.4 °F 65% 30.02 in 10.0 mi ESE 3.5 mph - N/A   Clear
9:55 PM 35.6 °F 29.9 °F 30.2 °F 81% 30.05 in 10.0 mi ESE 6.9 mph - N/A   Clear
10:35 PM 35.1 °F 29.3 °F 30.4 °F 83% 30.05 in 10.0 mi SE 6.9 mph - N/A   Clear
10:55 PM 33.8 °F 28.6 °F 30.2 °F 87% 30.05 in 10.0 mi SE 5.8 mph - N/A   Clear
11:15 PM 32.4 °F 29.1 °F 29.8 °F 90% 30.05 in 10.0 mi SSE 3.5 mph - N/A   Clear
11:35 PM 32.9 °F 28.5 °F 30.2 °F 90% 30.05 in 10.0 mi ESE 4.6 mph - N/A   Clear
11:55 PM 32.0 °F 28.7 °F 30.0 °F 92% 30.05 in 10.0 mi SSE 3.5 mph - N/A   Clear